Location: Pinon Hills
(34.4429°N, 117.6403°W)
Time: 08:22:03
(UTC-07:00)

Amateur Radio Satellites - All Passes

Search period start: 26 June 2016 07:52
Search period end: 27 June 2016 07:52
Location: Pinon Hills, 34.4429°N, 117.6403°W

Satellite Date Start Highest point End Downlink Frequencies (MHz)
Time Altitude Azimuth
CUTE-I 26 Jun 07:59:51 08:04:39 34° 290° (WNW) 08:09:26 437.470
GOMX 1 26 Jun 08:01:20 08:05:12 37° 286° (WNW) 08:09:12 467.674
PHONESAT 2.4 26 Jun 08:14:42 08:17:45 67° 338° (NNW) 08:20:49 2401.200-2431.200
AO-85 26 Jun 08:21:01 08:24:47 29° 249° (WSW) 08:28:18 145.980
PRISM 26 Jun 08:29:58 08:34:06 68° 76° (ENE) 08:38:14 437.425
Cosmos 2499 26 Jun 08:32:25 08:37:59 19° 280° (W) 08:43:24 435.465 / 435.565
AAUSAT CUBESAT 2 26 Jun 08:36:26 08:39:18 18° 94° (E) 08:42:09 437.432
NOAA 18 26 Jun 08:38:49 08:41:57 16° 297° (WNW) 08:45:05 137.9125
NOAA 15 26 Jun 08:40:23 08:41:08 10° 299° (WNW) 08:41:54 137.62
ISS 26 Jun 08:48:53 08:51:53 36° 132° (SE) 08:54:55 145.825
HO-68 26 Jun 08:51:36 08:58:49 71° 104° (ESE) 09:05:58 435.675
CINEMA 3 26 Jun 08:51:57 08:56:30 89° 274° (W) 09:01:16 145.822/145.860
CANX-2 26 Jun 08:54:41 08:59:00 81° 282° (WNW) 09:03:15 2200.000
COMPASS 1 26 Jun 09:06:51 09:10:59 56° 100° (E) 09:15:03 437.405
DANDE 26 Jun 09:06:51 09:15:03 61° 281° (W) 09:23:06 436.750
CUBEBUG 2 26 Jun 09:07:05 09:11:23 38° 98° (E) 09:15:46 437.445
CUSAT 1 26 Jun 09:11:03 09:17:38 28° 285° (WNW) 09:23:38 437.405
ANTELSAT 26 Jun 09:14:26 09:15:26 11° 65° (ENE) 09:16:27 437.575/2403.000
CUTE 1.7 + AOD 2 26 Jun 09:15:20 09:19:31 52° 285° (WNW) 09:23:38 437.475
M-CUBED/EXP-1 PRIME 26 Jun 09:16:12 09:19:37 28° 103° (ESE) 09:23:16 437.505
DOVE 4 26 Jun 09:16:28 09:18:36 13° 292° (WNW) 09:20:46 437.250
SEEDS 26 Jun 09:24:07 09:28:17 58° 285° (WNW) 09:32:25 437.485
ZACube-1 26 Jun 09:44:53 09:49:15 44° 99° (E) 09:53:37 437.345
PHONESAT 2.4 26 Jun 09:52:02 09:54:41 26° 355° (N) 09:57:21 2401.200-2431.200
RS-15 26 Jun 09:58:31 10:00:46 11° 95° (E) 10:03:02 29.354- 29.394
UWE-3 26 Jun 09:59:50 10:04:25 78° 284° (WNW) 10:09:04 435.000/436.395/437.385
Oscar 11 26 Jun 09:59:55 10:04:17 72° 101° (E) 10:08:37 145.826/435.025
TIGRISAT 26 Jun 10:03:31 10:07:28 39° 73° (ENE) 10:11:30 435.000
FUNcube-1 26 Jun 10:03:48 10:08:20 70° 101° (E) 10:12:52 145.935
UNISAT 6 26 Jun 10:07:36 10:11:41 47° 74° (ENE) 10:15:52 437.425
AAUSAT CUBESAT 2 26 Jun 10:11:11 10:14:46 29° 288° (WNW) 10:18:20 437.432
AUBIESAT-1 26 Jun 10:13:10 10:17:04 66° 288° (WNW) 10:21:15 437.475
ISS 26 Jun 10:25:57 10:28:25 19° 327° (NNW) 10:30:53 145.825
HO-68 26 Jun 10:40:54 10:45:47 20° 300° (WNW) 10:50:39 435.675
DELFI C3 26 Jun 10:43:48 10:47:48 75° 283° (WNW) 10:51:44 145.870
CUBEBUG 2 26 Jun 10:44:36 10:47:42 18° 291° (WNW) 10:50:50 437.445
COMPASS 1 26 Jun 10:45:49 10:45:59 10° 294° (WNW) 10:46:10 437.405
ANTELSAT 26 Jun 10:47:25 10:51:35 56° 260° (W) 10:55:52 437.575/2403.000
M-CUBED/EXP-1 PRIME 26 Jun 10:51:14 10:54:00 19° 294° (WNW) 10:56:54 437.505
NANOSAT C BR1 26 Jun 10:53:58 10:57:13 22° 70° (ENE) 11:00:29 145.865
QB50P1 26 Jun 10:55:18 10:58:42 25° 71° (ENE) 11:02:06 145.935-145.965
DANDE 26 Jun 10:57:34 10:59:11 11° 297° (WNW) 11:00:49 436.750
POPSAT HIP 1 26 Jun 10:58:11 11:01:39 26° 71° (ENE) 11:05:09 437.405
QB50P2 26 Jun 11:09:21 11:13:15 38° 73° (ENE) 11:17:09 145.880/145.840
POLYITAN 1 26 Jun 11:11:58 11:15:52 39° 73° (ENE) 11:19:47 437.675
DUCHIFAT 1 26 Jun 11:15:07 11:18:57 37° 73° (ENE) 11:22:48 145.980
HUMSAT D 26 Jun 11:20:16 11:24:33 64° 284° (WNW) 11:28:48 437.325/437.525
ZACube-1 26 Jun 11:22:32 11:25:08 15° 293° (WNW) 11:27:44 437.345
BEESAT 3 26 Jun 11:28:00 11:30:16 15° 50° (NE) 11:32:31 437.485
PHONESAT 2.4 26 Jun 11:28:58 11:31:46 31° 11° (NNE) 11:34:35 2401.200-2431.200
CUBEBUG 1 26 Jun 11:40:07 11:43:15 19° 95° (E) 11:46:22 437.445
VELOX 1 26 Jun 11:41:37 11:44:42 19° 95° (E) 11:47:46 145.980
TIGRISAT 26 Jun 11:42:05 11:44:19 14° 267° (W) 11:46:34 435.000
UNISAT 6 26 Jun 11:47:11 11:48:39 12° 268° (W) 11:50:08 437.425
YUBILEINY 26 Jun 11:50:05 11:56:02 21° 81° (E) 12:01:58 435.215
JAS-2 26 Jun 11:53:38 12:00:32 37° 69° (ENE) 12:07:00 435.910
RS-15 26 Jun 11:59:37 12:10:43 69° 113° (ESE) 12:22:29 29.354- 29.394
BEESAT 2 26 Jun 12:00:28 12:03:14 18° 52° (NE) 12:06:00 435.950
50 SAT 26 Jun 12:03:16 12:06:42 36° 98° (E) 12:10:05 437.505
Cosmos 2491 26 Jun 12:05:35 12:14:10 60° 80° (E) 12:22:43 435.465 / 435.565
ESTCUBE 1 26 Jun 12:06:41 12:11:10 64° 102° (ESE) 12:15:36 437.505/2401.250
PCSat 26 Jun 12:12:53 12:18:17 65° 62° (ENE) 12:23:38 145.827
AISAT 26 Jun 12:21:06 12:25:26 59° 101° (E) 12:29:46 437.250
BUGSAT 1 26 Jun 12:21:15 12:25:17 75° 258° (WSW) 12:29:18 437.445
NANOSAT C BR1 26 Jun 12:29:27 12:32:49 23° 264° (W) 12:36:12 145.865
QB50P1 26 Jun 12:31:10 12:34:23 21° 264° (W) 12:37:37 145.935-145.965
POPSAT HIP 1 26 Jun 12:34:16 12:37:22 20° 265° (W) 12:40:30 437.405
UKube-1 26 Jun 12:34:48 12:38:59 47° 100° (E) 12:43:07 .
SPROUT 26 Jun 12:41:11 12:45:11 38° 98° (E) 12:49:11 437.525
QB50P2 26 Jun 12:47:04 12:49:11 14° 267° (W) 12:51:18 145.880/145.840
POLYITAN 1 26 Jun 12:49:48 12:51:49 13° 267° (W) 12:53:49 437.675
DX 1 26 Jun 12:49:55 12:54:16 86° 285° (WNW) 12:58:36 434.975-435.025
DUCHIFAT 1 26 Jun 12:52:36 12:54:45 14° 267° (W) 12:56:55 145.980
BEESAT 3 26 Jun 13:04:23 13:08:08 41° 245° (WSW) 13:11:49 437.485
PHONESAT 2.4 26 Jun 13:05:28 13:08:32 64° 207° (SSW) 13:11:35 2401.200-2431.200
CUBEBUG 1 26 Jun 13:15:48 13:19:30 29° 289° (WNW) 13:23:12 437.445
Gurwin Techsat 1B 26 Jun 13:16:09 13:20:20 24° 68° (ENE) 13:24:32 435.225
VELOX 1 26 Jun 13:17:17 13:21:10 31° 289° (WNW) 13:25:02 145.980
Oscar 19 26 Jun 13:17:31 13:22:34 60° 74° (ENE) 13:27:39 437.125/150
O/OREOS (USA 219) 26 Jun 13:26:49 13:31:18 78° 69° (ENE) 13:35:47 437.305
BEESAT 2 26 Jun 13:37:33 13:41:09 33° 247° (WSW) 13:44:43 435.950
ITAMSAT 1 26 Jun 13:37:51 13:40:12 13° 63° (ENE) 13:42:34 435.822/435.867
JAS-2 26 Jun 13:38:06 13:45:20 41° 262° (W) 13:52:10 435.910
50 SAT 26 Jun 13:38:42 13:39:59 12° 292° (WNW) 13:41:17 437.505
YUBILEINY 26 Jun 13:43:15 13:51:52 69° 278° (W) 14:00:37 435.215
ESTCUBE 1 26 Jun 13:46:46 13:47:22 10° 296° (WNW) 13:47:57 437.505/2401.250
AO-7 26 Jun 13:49:42 13:54:09 16° 53° (NE) 13:58:36 29.400- 29.500
ITUPSAT 1 26 Jun 13:56:17 13:57:09 10° 92° (E) 13:57:59 437.325
BEESAT 26 Jun 13:56:30 13:57:43 11° 92° (E) 13:58:56 436.000
PCSat 26 Jun 13:58:31 14:01:02 13° 257° (WSW) 14:03:33 145.827
AIST 2 26 Jun 13:59:53 14:02:54 19° 52° (NE) 14:05:54 435.215
AISAT 26 Jun 14:00:22 14:01:22 11° 295° (WNW) 14:02:21 437.250
Cosmos 2491 26 Jun 14:03:42 14:10:16 25° 277° (W) 14:16:53 435.465 / 435.565
TISAT 1 26 Jun 14:10:13 14:14:24 76° 285° (WNW) 14:18:37 437.305
UKube-1 26 Jun 14:12:41 14:14:34 13° 294° (WNW) 14:16:26 .
RS-15 26 Jun 14:13:52 14:24:02 35° 316° (NW) 14:34:46 29.354- 29.394
SPROUT 26 Jun 14:18:20 14:20:47 15° 292° (WNW) 14:23:13 437.525
Cosmos 2504 26 Jun 14:25:28 14:33:19 72° 92° (E) 14:41:48 435.465 / 435.565
Gurwin Techsat 1B 26 Jun 14:55:13 15:00:03 36° 262° (W) 15:04:55 435.225
Oscar 19 26 Jun 14:59:55 15:02:13 13° 268° (W) 15:04:31 437.125/150
SWISSCUBE 26 Jun 15:05:28 15:10:17 78° 102° (ESE) 15:15:03 437.505
ITAMSAT 1 26 Jun 15:13:53 15:19:02 67° 258° (WSW) 15:24:15 435.822/435.867
ISS 26 Jun 15:20:19 15:21:52 13° 28° (NNE) 15:23:25 145.825
SO-50 26 Jun 15:20:49 15:24:24 21° 110° (ESE) 15:27:59 436.795
ITUPSAT 1 26 Jun 15:30:34 15:35:20 65° 285° (WNW) 15:40:04 437.325
BEESAT 26 Jun 15:31:06 15:35:50 62° 286° (WNW) 15:40:33 436.000
AO-7 26 Jun 15:37:18 15:45:36 81° 71° (ENE) 15:53:59 29.400- 29.500
AIST 2 26 Jun 15:37:41 15:41:27 33° 247° (WSW) 15:45:11 435.215
HORYU 2 26 Jun 15:43:33 15:44:50 11° 65° (ENE) 15:46:08 437.375
YUBILEINY 26 Jun 15:49:11 15:50:21 10° 298° (WNW) 15:51:31 435.215
STARS 26 Jun 16:00:43 16:02:45 13° 93° (E) 16:04:46 437.465
JUGNU 26 Jun 16:07:39 16:11:03 16° 170° (S) 16:14:27 437.505
Cosmos 2504 26 Jun 16:21:53 16:27:32 20° 292° (WNW) 16:33:28 435.465 / 435.565
MOZHAYETS 4 26 Jun 16:30:26 16:35:02 59° 100° (E) 16:39:34
RS-15 26 Jun 16:36:39 16:42:00 14° 349° (N) 16:47:27 29.354- 29.394
NOAA 15 26 Jun 16:39:04 16:39:33 10° 61° (ENE) 16:40:01 137.62
BRITE-PL 26 Jun 16:47:00 16:47:24 10° 66° (ENE) 16:47:47 437.365/2234.400
ISS 26 Jun 16:55:25 16:58:41 80° 224° (SW) 17:01:56 145.825
KKS-1 26 Jun 16:56:41 17:01:04 61° 286° (WNW) 17:05:27 437.445
SO-50 26 Jun 17:00:00 17:04:35 40° 304° (NW) 17:09:11 436.795
Cubesat XI-IV 26 Jun 17:05:43 17:08:23 14° 63° (ENE) 17:11:03 437.490
HORYU 2 26 Jun 17:16:30 17:20:50 58° 259° (WSW) 17:25:13 437.375
SRMSAT 26 Jun 17:20:06 17:21:19 11° 164° (SSE) 17:22:32 437.500
AIST 1 26 Jun 17:21:53 17:26:11 68° 95° (E) 17:30:29
GOMX 1 26 Jun 17:30:41 17:32:24 12° 67° (ENE) 17:34:05 467.674
AO-7 26 Jun 17:33:55 17:39:05 18° 267° (W) 17:44:17 29.400- 29.500
STARS 26 Jun 17:35:05 17:39:16 45° 287° (WNW) 17:43:28 437.465
CUTE-I 26 Jun 17:38:35 17:43:08 30° 69° (ENE) 17:47:44 437.470
GONETS M04 26 Jun 17:45:58 17:52:59 28° 84° (E) 17:59:58
CUBESAT XI-V 26 Jun 17:52:01 17:56:30 48° 99° (E) 18:00:56 437.345
JUGNU 26 Jun 17:55:13 17:59:23 19° 180° (S) 18:03:32 437.505
LilacSat-2 26 Jun 18:02:21 18:05:52 39° 74° (ENE) 18:09:24 437.200
MOZHAYETS 4 26 Jun 18:09:55 18:11:38 12° 295° (WNW) 18:13:22
CUSAT 1 26 Jun 18:11:28 18:12:34 11° 66° (ENE) 18:13:37 437.405
NOAA 15 26 Jun 18:13:13 18:18:32 87° 256° (WSW) 18:23:51 137.62
NOAA 18 26 Jun 18:19:09 18:24:36 84° 75° (ENE) 18:30:06 137.9125
BRITE-PL 26 Jun 18:20:04 18:25:20 79° 258° (WSW) 18:30:13 437.365/2234.400
DOVE 4 26 Jun 18:39:39 18:43:28 29° 72° (ENE) 18:47:08 437.250
Cubesat XI-IV 26 Jun 18:42:33 18:47:50 66° 258° (WSW) 18:53:11 437.490
RS-15 26 Jun 18:53:52 19:01:59 19° 28° (NNE) 19:10:06 29.354- 29.394
GOMX 1 26 Jun 19:05:23 19:10:06 56° 259° (W) 19:14:31 467.674
SRMSAT 26 Jun 19:05:54 19:09:44 18° 174° (S) 19:13:34 437.500
Cosmos 2499 26 Jun 19:07:57 19:15:57 67° 92° (E) 19:24:33 435.465 / 435.565
HO-68 26 Jun 19:16:35 19:22:58 36° 66° (ENE) 19:29:21 435.675
CUTE-I 26 Jun 19:18:31 19:23:05 29° 263° (W) 19:27:41 437.470
CUBESAT XI-V 26 Jun 19:31:03 19:33:25 14° 294° (WNW) 19:35:48 437.345
LilacSat-2 26 Jun 19:39:42 19:40:20 10° 268° (W) 19:40:56 437.200
GONETS M04 26 Jun 19:40:49 19:49:14 53° 281° (W) 19:57:42
CANX-2 26 Jun 19:43:41 19:47:43 43° 74° (ENE) 19:51:48 2200.000
JUGNU 26 Jun 19:44:14 19:47:42 16° 190° (S) 19:51:10 437.505
CINEMA 3 26 Jun 19:50:27 19:54:29 50° 75° (ENE) 19:58:29 145.822/145.860
CUSAT 1 26 Jun 19:52:10 19:54:45 19° 272° (W) 19:56:58 437.405
DANDE 26 Jun 19:54:06 19:59:01 81° 263° (W) 20:02:38 436.750
COMPASS 1 26 Jun 19:54:27 19:57:50 24° 71° (ENE) 20:01:13 437.405
STRAND 1 26 Jun 19:58:13 20:03:22 66° 102° (ESE) 20:08:27 437.568
M-CUBED/EXP-1 PRIME 26 Jun 20:01:15 20:03:18 16° 66° (ENE) 20:05:21 437.505
CUBEBUG 2 26 Jun 20:02:51 20:05:46 19° 69° (ENE) 20:08:45 437.445
CUTE 1.7 + AOD 2 26 Jun 20:03:54 20:08:07 67° 76° (ENE) 20:12:23 437.475
SEEDS 26 Jun 20:11:48 20:15:57 57° 75° (ENE) 20:20:08 437.485
PRISM 26 Jun 20:17:19 20:18:44 12° 93° (E) 20:20:09 437.425
DOVE 4 26 Jun 20:18:01 20:21:09 19° 264° (W) 20:24:12 437.250
ZACube-1 26 Jun 20:38:02 20:41:11 21° 70° (ENE) 20:44:23 437.345
AO-85 26 Jun 20:51:05 20:55:02 21° 109° (ESE) 20:58:56 145.980
Oscar 11 26 Jun 20:51:10 20:55:04 34° 72° (ENE) 20:58:59 145.826/435.025
UWE-3 26 Jun 20:53:22 20:57:23 51° 75° (ENE) 21:01:30 435.000/436.395/437.385
SRMSAT 26 Jun 20:54:13 20:58:13 19° 184° (S) 21:02:13 437.500
FUNcube-1 26 Jun 20:56:07 20:59:50 32° 72° (ENE) 21:03:36 145.935
AUBIESAT-1 26 Jun 20:56:42 21:00:02 83° 71° (ENE) 21:03:20 437.475
AAUSAT CUBESAT 2 26 Jun 20:56:53 21:01:03 73° 260° (W) 21:05:15 437.432
Cosmos 2499 26 Jun 21:03:36 21:09:46 23° 291° (WNW) 21:16:16 435.465 / 435.565
HO-68 26 Jun 21:04:03 21:10:32 37° 261° (W) 21:17:06 435.675
RS-15 26 Jun 21:05:43 21:17:55 59° 55° (NE) 21:29:54 29.354- 29.394
CANX-2 26 Jun 21:21:51 21:23:45 13° 268° (W) 21:25:39 2200.000
DELFI C3 26 Jun 21:26:04 21:29:45 36° 73° (ENE) 21:33:28 145.870
COMPASS 1 26 Jun 21:29:57 21:33:16 22° 265° (W) 21:36:37 437.405
M-CUBED/EXP-1 PRIME 26 Jun 21:35:17 21:37:45 19° 258° (WSW) 21:40:11 437.505
CUBEBUG 2 26 Jun 21:38:40 21:42:12 27° 264° (W) 21:45:48 437.445
STRAND 1 26 Jun 21:39:38 21:41:55 13° 297° (WNW) 21:44:10 437.568
PRISM 26 Jun 21:50:22 21:54:14 42° 286° (WNW) 21:58:03 437.425
TIGRISAT 26 Jun 22:00:18 22:02:01 12° 92° (E) 22:03:44 435.000
UNISAT 6 26 Jun 22:04:01 22:06:32 14° 93° (E) 22:09:03 437.425
HUMSAT D 26 Jun 22:07:43 22:11:43 52° 75° (ENE) 22:15:48 437.325/437.525
ZACube-1 26 Jun 22:13:52 22:17:18 25° 264° (W) 22:20:49 437.345
Oscar 11 26 Jun 22:28:28 22:31:15 17° 266° (W) 22:34:03 145.826/435.025
AO-85 26 Jun 22:29:57 22:35:12 48° 302° (WNW) 22:40:20 145.980
FUNcube-1 26 Jun 22:33:31 22:36:08 16° 267° (W) 22:38:48 145.935
CUBEBUG 1 26 Jun 22:34:36 22:35:54 11° 66° (ENE) 22:37:13 437.445
VELOX 1 26 Jun 22:37:19 22:38:44 11° 65° (ENE) 22:40:09 145.980
50 SAT 26 Jun 22:40:20 22:41:02 10° 67° (ENE) 22:41:43 437.505
ANTELSAT 26 Jun 22:42:19 22:46:41 39° 98° (E) 22:51:05 437.575/2403.000
SRMSAT 26 Jun 22:44:11 22:46:39 13° 194° (SSW) 22:49:07 437.500
ESTCUBE 1 26 Jun 23:02:37 23:06:48 38° 72° (ENE) 23:11:00 437.505/2401.250
DELFI C3 26 Jun 23:02:43 23:04:43 13° 267° (W) 23:06:43 145.870
Cosmos 2491 26 Jun 23:12:58 23:15:08 11° 77° (ENE) 23:17:19 435.465 / 435.565
AISAT 26 Jun 23:15:04 23:19:01 33° 72° (ENE) 23:22:58 437.250
RS-15 26 Jun 23:18:59 23:29:49 38° 255° (WSW) 23:40:30 29.354- 29.394
UKube-1 26 Jun 23:26:11 23:29:45 26° 70° (ENE) 23:33:18 .
SPROUT 26 Jun 23:32:03 23:35:05 19° 69° (ENE) 23:38:06 437.525
TIGRISAT 26 Jun 23:34:24 23:38:57 56° 285° (WNW) 23:43:32 435.000
UNISAT 6 26 Jun 23:38:57 23:43:24 46° 286° (WNW) 23:47:53 437.425
DX 1 26 Jun 23:41:42 23:45:54 50° 74° (ENE) 23:50:07 434.975-435.025
YUBILEINY 26 Jun 23:57:53 00:06:26 51° 79° (ENE) 00:14:56 435.215
BUGSAT 1 27 Jun 00:07:13 00:10:13 19° 96° (E) 00:13:14 437.445
CUBEBUG 1 27 Jun 00:07:24 00:11:41 55° 260° (W) 00:15:58 437.445
VELOX 1 27 Jun 00:10:21 00:14:41 56° 259° (W) 00:19:02 145.980
50 SAT 27 Jun 00:10:46 00:14:16 41° 261° (W) 00:17:49 437.505
NANOSAT C BR1 27 Jun 00:16:17 00:20:31 69° 102° (ESE) 00:24:44 145.865
QB50P1 27 Jun 00:18:08 00:22:23 77° 100° (E) 00:26:39 145.935-145.965
ANTELSAT 27 Jun 00:19:58 00:23:04 18° 292° (WNW) 00:26:10 437.575/2403.000
POPSAT HIP 1 27 Jun 00:21:09 00:25:26 82° 104° (ESE) 00:29:41 437.405
Cosmos 2504 27 Jun 00:23:36 00:30:12 23° 69° (ENE) 00:36:36 435.465 / 435.565
QB50P2 27 Jun 00:33:02 00:37:15 65° 285° (WNW) 00:41:29 145.880/145.840
POLYITAN 1 27 Jun 00:35:39 00:39:53 63° 284° (WNW) 00:44:07 437.675
DUCHIFAT 1 27 Jun 00:37:49 00:42:01 69° 285° (WNW) 00:46:14 145.980
ESTCUBE 1 27 Jun 00:40:49 00:43:42 17° 266° (W) 00:46:34 437.505/2401.250
AISAT 27 Jun 00:52:33 00:55:31 18° 265° (W) 00:58:31 437.250
JAS-2 27 Jun 00:52:51 00:57:47 32° 96° (E) 01:02:25 435.910
TISAT 1 27 Jun 00:58:11 01:02:10 47° 74° (ENE) 01:06:10 437.305
Cosmos 2491 27 Jun 01:01:40 01:10:25 77° 94° (E) 01:19:10 435.465 / 435.565
UKube-1 27 Jun 01:02:20 01:05:42 22° 264° (W) 01:09:05 .
SPROUT 27 Jun 01:07:06 01:10:48 29° 263° (W) 01:14:30 437.525
PCSat 27 Jun 01:10:47 01:13:18 13° 103° (ESE) 01:15:49 145.827
DX 1 27 Jun 01:20:58 01:22:19 11° 267° (W) 01:23:40 434.975-435.025
Oscar 19 27 Jun 01:33:08 01:37:30 28° 97° (E) 01:41:51 437.125/150
SO-50 27 Jun 01:34:42 01:39:19 70° 59° (ENE) 01:43:47 436.795
Gurwin Techsat 1B 27 Jun 01:37:29 01:39:26 12° 92° (E) 01:41:23 435.225
BUGSAT 1 27 Jun 01:42:07 01:45:32 26° 289° (WNW) 01:48:59 437.445
YUBILEINY 27 Jun 01:55:26 02:02:44 30° 275° (W) 02:10:02 435.215
O/OREOS (USA 219) 27 Jun 01:58:42 02:00:55 14° 99° (E) 02:03:09 437.305
SWISSCUBE 27 Jun 02:08:11 02:12:52 59° 74° (ENE) 02:17:36 437.505
Cosmos 2504 27 Jun 02:15:30 02:24:19 70° 268° (W) 02:32:43 435.465 / 435.565
ITUPSAT 1 27 Jun 02:33:25 02:38:12 84° 256° (WSW) 02:43:02 437.325
BEESAT 27 Jun 02:33:36 02:38:22 82° 257° (WSW) 02:43:11 436.000
TISAT 1 27 Jun 02:36:58 02:38:02 11° 267° (W) 02:39:06 437.305
JAS-2 27 Jun 02:38:13 02:42:42 25° 294° (WNW) 02:46:56 435.910
PCSat 27 Jun 02:50:41 02:56:03 65° 297° (WNW) 03:01:27 145.827
BEESAT 3 27 Jun 02:51:11 02:55:04 75° 118° (ESE) 02:59:00 437.485
Cosmos 2491 27 Jun 03:02:16 03:08:05 19° 292° (WNW) 03:13:57 435.465 / 435.565
Oscar 19 27 Jun 03:12:22 03:16:43 29° 291° (WNW) 03:21:03 437.125/150
Gurwin Techsat 1B 27 Jun 03:14:30 03:19:47 68° 285° (WNW) 03:25:03 435.225
BEESAT 2 27 Jun 03:25:29 03:29:26 81° 299° (WNW) 03:33:25 435.950
MOZHAYETS 4 27 Jun 03:28:46 03:32:57 36° 72° (ENE) 03:37:12
ITAMSAT 1 27 Jun 03:30:21 03:35:31 59° 102° (ESE) 03:40:38 435.822/435.867
AIST 1 27 Jun 03:34:54 03:36:17 11° 73° (ENE) 03:37:40
O/OREOS (USA 219) 27 Jun 03:35:35 03:39:53 43° 293° (WNW) 03:44:10 437.305
AO-7 27 Jun 03:43:37 03:51:00 33° 98° (E) 03:58:18 29.400- 29.500
SWISSCUBE 27 Jun 03:49:20 03:50:58 12° 268° (W) 03:52:37 437.505
KKS-1 27 Jun 03:50:49 03:55:14 77° 76° (ENE) 03:59:39 437.445
STARS 27 Jun 04:27:41 04:32:03 83° 260° (W) 04:36:25 437.465
CUBESAT XI-V 27 Jun 04:51:48 04:55:57 32° 72° (ENE) 05:00:06 437.345
Cosmos 2499 27 Jun 05:05:22 05:11:23 20° 68° (ENE) 05:17:09 435.465 / 435.565
MOZHAYETS 4 27 Jun 05:07:05 05:10:11 18° 266° (W) 05:13:20
AIST 1 27 Jun 05:10:03 05:14:06 44° 267° (W) 05:18:09
HORYU 2 27 Jun 05:11:03 05:15:09 34° 98° (E) 05:19:13 437.375
ITAMSAT 1 27 Jun 05:11:33 05:14:26 15° 296° (WNW) 05:17:19 435.822/435.867
AIST 2 27 Jun 05:31:12 05:35:17 69° 300° (WNW) 05:39:25 435.215
AO-7 27 Jun 05:35:54 05:43:49 48° 294° (WNW) 05:51:42 29.400- 29.500
GONETS M04 27 Jun 05:55:04 06:03:44 66° 81° (E) 06:12:25
CUTE-I 27 Jun 06:00:11 06:03:18 16° 93° (E) 06:06:25 437.470
BRITE-PL 27 Jun 06:28:47 06:32:41 38° 99° (E) 06:36:36 437.365/2234.400
CUBESAT XI-V 27 Jun 06:29:47 06:33:19 21° 265° (W) 06:36:53 437.345
NOAA 15 27 Jun 06:32:11 06:37:14 47° 100° (E) 06:42:15 137.62
NOAA 18 27 Jun 06:44:54 06:50:17 49° 101° (E) 06:55:37 137.9125
HORYU 2 27 Jun 06:48:17 06:51:25 19° 292° (WNW) 06:54:32 437.375
Cosmos 2499 27 Jun 06:56:40 07:05:25 76° 267° (W) 07:13:35 435.465 / 435.565
Cubesat XI-IV 27 Jun 07:03:22 07:08:45 69° 102° (ESE) 07:14:05 437.490
CUSAT 1 27 Jun 07:03:55 07:11:11 40° 92° (E) 07:17:40 437.405
AO-85 27 Jun 07:05:49 07:10:11 56° 59° (ENE) 07:14:10 145.980
GOMX 1 27 Jun 07:10:17 07:14:23 51° 100° (E) 07:18:40 467.674
STRAND 1 27 Jun 07:10:23 07:15:27 65° 74° (ENE) 07:20:35 437.568
PHONESAT 2.4 27 Jun 07:10:51 07:13:52 62° 153° (SSE) 07:16:54 2401.200-2431.200
DANDE 27 Jun 07:12:34 07:18:54 25° 86° (E) 07:25:06 436.750
LilacSat-2 27 Jun 07:12:57 07:16:50 77° 283° (WNW) 07:20:42 437.200
CUTE-I 27 Jun 07:38:23 07:43:37 54° 287° (WNW) 07:48:50 437.470
